User: anonymous
Location: Caltech
(34.1382°N, 118.1253°W)
Time: 04:58:13
(UTC-07:00)
Language:

FENGYUN 3A - Orbit

View from above orbital plane
View from above orbital plane
View from above satellite
View from above satellite

Ground track
Ground track

The orbit data is extracted from the following two-line orbital elements,

1 32958U 08026A   14204.07765793  .00000005  00000-0  22335-4 0  1949
2 32958 098.5521 261.7025 0010396 109.9972 250.2330 14.19459703318930
Epoch (UTC): 23 July 2014 01:51:49
Eccentricity: 0.0010396
inclination: 98.5521°
perigee height: 819 km
apogee height: 834 km
right ascension of ascending node: 261.7025°
argument of perigee: 109.9972°
revolutions per day: 14.19459703
mean anomaly at epoch: 250.2330°
orbit number at epoch: 31893

The dashed part of the orbit path shows where the satellite is in the earth's shadow,  

DLR